Location: Desert Center
(33.7130°N, 115.4010°W)
Time: 03:09:49
(UTC-07:00)

Daily predictions for brighter satellites

Satellite Brightness Start Highest point End
(mag) Time Altitude Azimuth Time Altitude Azimuth Time Altitude Azimuth
NOSS 3-1 (A) 4.5 00:21:26 10° NW 00:27:27 54° WNW 00:27:27 54° WNW
Cosmos 2369 Rocket 4.4 00:50:20 17° NW 00:50:20 17° NW 00:53:39 10° NNW
ATLAS 2AS CENTAUR R/B 3.3 00:42:30 10° NNW 00:49:31 63° NNE 00:49:31 63° NNE
ATLAS 3B CENTAUR R/B 4.2 00:53:28 66° SSE 00:53:28 66° SSE 01:19:05 10° E
CZ-2C R/B 4.4 00:53:46 10° N 00:56:10 28° N 00:56:10 28° N
Cosmos 2227 Rocket 4.5 01:05:10 10° NNE 01:08:33 16° NE 01:09:14 16° ENE
Cosmos 1943 Rocket 4.2 01:22:41 21° NW 01:22:41 21° NW 01:25:40 10° N
ATLAS CENTAUR R/B 4.4 01:29:31 14° ENE 01:29:31 14° ENE 01:30:26 10° NE
Cosmos 2297 Rocket 4.5 01:26:10 10° NNE 01:29:43 17° ENE 01:31:06 15° ENE
SeaSat 1 4.3 01:37:47 27° NNE 01:37:47 27° NNE 01:40:38 10° N
BREEZE-M DEB (TANK) 4.1 02:07:06 10° NW 02:15:51 43° N 02:15:51 43° N
CZ-2D R/B 4.3 02:15:18 10° NE 02:18:35 16° E 02:19:03 16° E
Cosmos 1697 Rocket 3.3 02:34:48 53° ENE 02:34:48 53° ENE 02:39:27 10° NNE
ARIANE 5 R/B 3.7 02:35:36 10° NNE 02:40:03 35° E 02:40:03 35° E
Cosmos 1980 Rocket 3.1 02:43:10 41° E 02:43:10 41° E 02:48:11 10° NE
Cosmos 2082 4.4 02:38:05 10° NNW 02:41:57 45° NNW 02:41:57 45° NNW
Cosmos 1891 Rocket 4.4 02:46:02 75° NNW 02:46:02 75° NNW 02:51:36 10° N
ADEOS 3.9 02:45:25 10° NNE 02:49:53 63° NE 02:49:53 63° NE
Cosmos 2227 Rocket 3.1 02:47:27 10° NNW 02:50:59 38° NW 02:50:59 38° NW
Resurs 1-4 Rocket 3.1 02:49:33 10° NNE 02:54:23 36° E 02:54:50 35° ESE
Cosmos 2322 Rocket 4.2 02:54:04 16° ESE 02:55:45 18° E 02:59:30 10° ENE
Spot 4 Rocket 4.2 02:55:48 10° NNE 03:00:27 72° NNE 03:00:27 72° NNE
Cosmos 2034 Rocket 4.0 03:01:31 65° WNW 03:01:31 65° WNW 03:07:25 10° N
ATLAS CENTAUR R/B 3.2 03:05:51 30° NW 03:05:51 30° NW 03:09:37 10° N
IRS-1D 3.6 03:05:42 10° NNE 03:10:38 65° ESE 03:10:40 65° ESE
Nadezhda 4 Rocket 3.9 03:05:50 10° N 03:12:03 81° E 03:13:26 57° SSE
Meteor 2-5 Rocket 4.3 03:07:08 10° NNW 03:11:52 46° WNW 03:11:52 46° WNW
Cosmos 2297 Rocket 2.7 03:08:36 10° NNW 03:12:50 47° WNW 03:12:50 47° WNW
SL-16 R/B 2.9 03:12:48 26° SE 03:16:16 62° ENE 03:22:20 10° N
Cosmos 990 Rocket 3.8 03:18:25 10° NNW 03:23:40 81° W 03:23:40 81° W
GPS 2-04 Rocket1 3.5 03:25:18 48° ENE 03:25:18 48° ENE 03:28:18 10° E
ERS-2 4.1 03:24:23 10° N 03:26:03 22° NNW 03:26:03 22° NNW
SL-16 R/B 3.4 03:27:24 26° SSE 03:29:42 36° ESE 03:34:50 10° NE
Cosmos 2360 4.2 03:29:00 58° S 03:30:07 77° ESE 03:35:50 10° NNE
SL-24 R/B - RUBIN 2 4.5 03:32:06 47° SSE 03:33:27 61° ESE 03:39:34 10° NE
CZ-3A R/B 4.3 03:32:26 29° WSW 03:39:19 53° NW 03:44:30 10° NNE
Cosmos 332 Rocket 4.0 03:39:15 50° SSE 03:40:16 63° ESE 03:45:03 10° NNE
UNKNOWN OBJECT B 2.7 03:39:39 10° NNE 03:43:29 78° E 03:43:29 78° E
Cosmos 1437 3.6 03:42:54 10° N 03:46:09 47° E 03:46:21 46° E
Cosmos 1634 Rocket 3.9 03:44:15 43° SSW 03:46:28 78° W 03:52:46 10° N
SL-24 R/B 4.5 03:49:17 52° W 03:49:17 52° W 03:53:47 10° NNW
Cosmos 1441 Rocket 4.0 03:45:44 10° NNW 03:48:40 41° NW 03:48:40 41° NW
Meteor 1-24 Rocket 4.2 03:44:58 10° NNW 03:50:21 41° W 03:50:47 40° WSW
EO 1 Del DPAF 3.1 03:50:30 82° SSW 03:50:39 86° WSW 03:54:32 10° NNW
Cosmos 1805 3.4 03:53:08 58° WNW 03:53:08 58° WNW 03:56:44 10° N
DELTA 2 R/B (1) 3.8 03:52:10 45° SSW 03:53:31 57° SSE 03:58:59 10° ENE
Cosmos 841 Rocket 4.5 03:53:15 30° WNW 03:53:43 30° WNW 03:58:21 10° N
Cosmos 2195 Rocket 4.5 03:48:01 10° N 03:54:09 80° E 03:59:27 14° S
Cosmos 1758 3.6 03:55:39 49° WNW 03:55:39 49° WNW 03:59:19 10° N
Cosmos 1076 Rocket 4.3 03:51:46 10° NNW 03:55:02 36° WNW 03:55:02 36° WNW
CZ-4B R/B 4.1 03:50:55 10° NNE 03:56:09 44° E 04:00:25 15° SSE
Cosmos 1544 2.9 03:56:30 75° SSE 03:56:46 84° E 04:00:26 10° N
CZ-2D R/B 2.4 03:53:38 10° N 03:58:54 52° WNW 04:00:23 40° WSW
Cosmos 1953 2.8 03:59:22 43° WNW 03:59:22 43° WNW 04:03:02 10° N
UNK 3.8 03:58:34 50° SW 03:59:12 54° W 04:03:48 10° NNW
Cosmos 371 Rocket 3.5 03:57:26 34° S 03:59:26 66° ESE 04:04:12 10° NNE
Cosmos 1125 Rocket 3.4 03:54:55 10° NNW 04:00:08 87° ENE 04:05:19 10° SSE
IRS-1C Rocket 4.3 03:55:38 10° NNE 04:00:53 69° ESE 04:04:01 25° S
Delta 128 4.3 04:01:01 35° S 04:01:06 35° S 04:05:20 10° ESE
Cosmos 1092 Rocket 4.2 03:57:05 10° NNW 04:03:08 51° W 04:05:50 32° SSW
NOSS 3-4 (A) 4.1 03:57:41 10° NW 04:04:22 44° WSW 04:11:24 10° S
NOSS 3-4 (C) 4.1 03:57:47 10° NW 04:04:31 45° WSW 04:11:36 10° S
Cosmos 2227 4.2 03:59:57 10° NNW 04:05:45 89° ENE 04:11:29 10° SSE
Cosmos 1500 Rocket 3.7 04:02:39 10° N 04:07:01 70° E 04:10:38 15° SSE
Cosmos 1627 Rocket 4.4 04:04:25 10° N 04:10:41 75° W 04:16:08 14° S
SME Rocket 4.5 04:09:06 33° SW 04:10:47 40° W 04:17:58 10° NNW
Cosmos 1743 Rocket 3.5 04:08:14 10° NNW 04:12:33 64° W 04:14:24 32° SSW
GEOS 3 Rocket 3.6 04:08:31 10° SE 04:13:45 87° ENE 04:18:57 10° NNW
CZ-2C R/B 4.1 04:10:33 10° SSE 04:15:13 68° ENE 04:19:49 10° N
In-Cosmos 22 4.3 04:11:47 10° NNW 04:16:52 49° W 04:19:35 26° SSW
Cosmos 1697 Rocket 4.4 04:16:33 15° WNW 04:18:14 17° WNW 04:21:49 10° NNW
ARIANE 5 R/B 3.8 04:15:10 10° NNW 04:19:10 23° WNW 04:20:23 21° W
Cosmos-2242 4.2 04:20:15 25° W 04:20:30 25° WNW 04:24:04 10° NNW
Cosmos 2221 3.7 04:17:37 10° SSE 04:21:38 42° E 04:25:40 10° NNE
BREEZE-M DEB (TANK) 4.5 04:09:08 19° SSW 04:22:36 70° SE 04:27:27 10° NE
Cosmos 540 Rocket 3.9 04:20:36 30° WSW 04:22:36 43° WNW 04:27:32 10° N
Abrixas 3.1 04:22:04 10° NW 04:25:06 59° NE 04:28:07 10° ESE
Okean O Rocket 1.6 04:21:04 10° N 04:25:27 68° WNW 04:27:58 25° SSW
Cosmos 1674 2.5 04:22:41 10° N 04:26:28 89° W 04:29:52 12° S
Cosmos 1980 Rocket 3.6 04:24:57 19° W 04:27:02 23° WNW 04:31:29 10° N
Cosmos 2360 Rocket 3.2 04:22:09 10° S 04:27:24 42° ESE 04:32:41 10° NE
OAO 1 4.5 04:26:59 15° W 04:31:26 66° SSW 04:36:51 10° ESE
Resurs 1-4 Rocket 3.4 04:29:54 10° NNW 04:33:57 23° WNW 04:35:55 18° W
Cosmos 2058 4.4 04:31:58 10° N 04:35:57 39° E 04:39:53 10° SSE
CZ-4B DEB 4.2 04:33:33 10° N 04:39:06 78° WNW 04:44:25 11° SSW
Cosmos 2279 Rocket 4.3 04:34:50 18° SSW 04:39:20 49° W 04:45:23 10° N
Cosmos 2322 Rocket 2.6 04:35:55 22° SW 04:39:20 48° WNW 04:44:45 10° N
RESURS DK-1 2.3 04:37:29 10° NNW 04:41:35 67° WSW 04:45:40 10° SSE
Thor Agena Rocket 3.5 04:38:35 10° SSE 04:43:37 88° ENE 04:48:41 10° NNW
Milstar 3 Cent rocket 3.0 04:42:27 17° WSW 04:46:31 51° S 04:55:44 10° ESE
PSLV R/B 3.9 04:45:49 10° NNE 04:50:03 67° E 04:54:18 10° S
Cosmos 1470 3.8 04:48:51 19° WSW 04:50:45 28° WNW 04:54:13 10° NNW
Cosmos 1538 Rocket 4.2 04:47:22 15° SW 04:51:37 56° WNW 04:56:51 10° N
CZ-3 Stage 3 3.7 04:20:25 10° W 04:52:55 66° SSW 04:58:26 10° ESE
SL-14 R/B 4.3 04:51:21 10° N 04:55:09 48° E 04:58:52 10° SSE
Cosmos 923 Rocket 4.3 04:51:13 10° S 04:56:23 68° ESE 05:01:34 10° NNE
Aurora 2 Rocket 3.9 04:57:05 10° SSW 04:57:13 10° SSW 04:57:49 10° S
SL-16 R/B 3.9 04:57:54 14° WSW 05:00:13 17° W 05:03:59 10° NW
MOZ.5/SAFIR/RUBIN 5/SL-8 4.2 04:56:47 10° SSW 05:01:11 40° W 05:05:37 10° NNW
Cosmos 304 Rocket 3.9 04:59:30 10° SSW 05:04:19 82° ESE 05:09:09 10° NNE
GPS 2-04 Rocket1 2.6 05:00:24 10° W 05:04:21 64° SSW 05:08:05 10° ESE
Cosmos 1461 3.4 05:00:53 10° NW 05:04:32 33° WSW 05:08:04 10° S
Cosmos 1805 Rocket 3.6 05:03:51 10° N 05:08:13 89° E 05:12:34 10° S
Cosmos 773 Rocket 4.0 05:03:53 10° SSW 05:08:58 67° WNW 05:14:09 10° N
Cosmos 2266 Rocket 4.0 05:04:15 10° N 05:10:25 81° W 05:16:42 10° S
Okean-O 2.7 05:08:20 10° N 05:12:44 63° WNW 05:17:06 10° SSW
SL-16 R/B 3.4 05:09:18 11° WSW 05:13:48 26° WNW 05:18:31 10° N
Meteor 2-20 Rocket 4.5 05:11:33 10° NNW 05:17:33 63° W 05:23:33 10° S
Lacrosse 5 rocket 4.5 05:16:29 10° NNE 05:17:41 11° NE 05:18:53 10° NE
CZ-4B R/B 4.3 05:16:53 10° NNW 05:19:44 20° WNW 05:22:30 10° WSW
Sich 1 3.2 05:17:04 10° N 05:21:23 77° E 05:25:44 10° S
COSMOS 2428 3.3 05:17:48 10° S 05:23:21 61° ESE 05:28:56 10° NNE
Elektron 1 4.0 05:21:04 10° SW 05:23:57 84° NW 05:28:05 10° NNE
